BM6HML-1 Weather Reports


time (UTC)temp
C
wind
direction
speed
KPH
gust
KPH
rain 1hr
cm
rain 24hr
cm
rain mn
cm
humidity
%
barometer
mb
20260508071419 33 0.0 0.0 0.00 0.00 0.00 68 1009.0
20260508065420 33 0.0 0.0 0.00 0.00 0.00 70 1009.2
20260508063419 33 0.0 0.0 0.00 0.00 0.00 71 1009.4
20260508061420 32 0.0 0.0 0.00 0.00 0.00 73 1009.5
20260508055419 32 0.0 0.0 0.00 0.00 0.00 73 1009.6
20260508053420 32 0.0 0.0 0.00 0.00 0.00 73 1009.8
20260508051420 32 0.0 0.0 0.00 0.00 0.00 72 1010.0
20260508045420 32 0.0 0.0 0.00 0.00 0.00 71 1010.0
20260508043420 32 0.0 0.0 0.00 0.00 0.00 70 1010.4
20260508041419 32 0.0 0.0 0.00 0.00 0.00 70 1010.5
20260508035420 32 0.0 0.0 0.00 0.00 0.00 70 1010.7
20260508033419 32 0.0 0.0 0.00 0.00 0.00 71 1010.9
20260508031420 32 0.0 0.0 0.00 0.00 0.00 70 1011.1
20260508025420 32 0.0 0.0 0.00 0.00 0.00 71 1011.4
20260508023420 32 0.0 0.0 0.00 0.00 0.00 72 1011.6
20260508021420 32 0.0 0.0 0.00 0.00 0.00 71 1011.7
20260508015419 32 0.0 0.0 0.00 0.00 0.00 71 1011.9
20260508013420 32 0.0 0.0 0.00 0.00 0.00 71 1012.1
20260508011419 32 0.0 0.0 0.00 0.00 0.00 71 1012.0
20260508005420 32 0.0 0.0 0.00 0.00 0.00 70 1012.1
20260508003420 32 0.0 0.0 0.00 0.00 0.00 72 1011.9
20260508001420 32 0.0 0.0 0.00 0.00 0.00 69 1011.8
20260507235420 32 0.0 0.0 0.00 0.00 0.00 69 1011.4
20260507233419 32 0.0 0.0 0.00 0.00 0.00 69 1011.5
20260507231420 32 0.0 0.0 0.00 0.00 0.00 70 1011.1
20260507225419 32 0.0 0.0 0.00 0.00 0.00 69 1010.8
20260507223420 32 0.0 0.0 0.00 0.00 0.00 69 1010.7
20260507221419 32 0.0 0.0 0.00 0.00 0.00 69 1010.6
20260507215420 32 0.0 0.0 0.00 0.00 0.00 69 1010.5
20260507213420 32 0.0 0.0 0.00 0.00 0.00 68 1010.4
20260507211419 32 0.0 0.0 0.00 0.00 0.00 68 1010.3
20260507205420 32 0.0 0.0 0.00 0.00 0.00 69 1010.2
20260507203420 32 0.0 0.0 0.00 0.00 0.00 69 1010.3
20260507201420 32 0.0 0.0 0.00 0.00 0.00 69 1010.2
20260507195419 32 0.0 0.0 0.00 0.00 0.00 70 1010.0
20260507193420 32 0.0 0.0 0.00 0.00 0.00 70 1010.0
20260507191420 32 0.0 0.0 0.00 0.00 0.00 70 1009.9
20260507185419 32 0.0 0.0 0.00 0.00 0.00 69 1009.8
20260507183420 32 0.0 0.0 0.00 0.00 0.00 70 1009.8
20260507181419 32 0.0 0.0 0.00 0.00 0.00 70 1009.9
20260507175420 32 0.0 0.0 0.00 0.00 0.00 69 1009.9
20260507173419 32 0.0 0.0 0.00 0.00 0.00 69 1009.9
20260507171420 32 0.0 0.0 0.00 0.00 0.00 70 1010.1
20260507165420 32 0.0 0.0 0.00 0.00 0.00 71 1010.1
20260507163420 32 0.0 0.0 0.00 0.00 0.00 68 1010.2
20260507161420 32 0.0 0.0 0.00 0.00 0.00 68 1010.4
20260507155420 32 0.0 0.0 0.00 0.00 0.00 69 1010.5
20260507153420 32 0.0 0.0 0.00 0.00 0.00 71 1010.6
20260507151421 32 0.0 0.0 0.00 0.00 0.00 69 1010.8
20260507145420 33 0.0 0.0 0.00 0.00 0.00 70 1010.9
20260507143420 33 0.0 0.0 0.00 0.00 0.00 67 1011.1
20260507141420 33 0.0 0.0 0.00 0.00 0.00 64 1011.0
20260507135420 33 0.0 0.0 0.00 0.00 0.00 70 1010.9
20260507133420 33 0.0 0.0 0.00 0.00 0.00 71 1010.8
20260507131420 31 0.0 0.0 0.00 0.00 0.00 77 1010.7
20260507125420 30 0.0 0.0 0.00 0.00 0.00 82 1010.5
20260507123419 30 0.0 0.0 0.00 0.00 0.00 82 1010.4
20260507121420 30 0.0 0.0 0.00 0.00 0.00 82 1010.4
20260507115419 30 0.0 0.0 0.00 0.00 0.00 80 1010.4
20260507113420 32 0.0 0.0 0.00 0.00 0.00 73 1010.3
20260507111420 32 0.0 0.0 0.00 0.00 0.00 72 1010.1
20260507105420 32 0.0 0.0 0.00 0.00 0.00 72 1009.8
20260507103420 32 0.0 0.0 0.00 0.00 0.00 72 1009.6
20260507101420 32 0.0 0.0 0.00 0.00 0.00 72 1009.5
20260507095420 32 0.0 0.0 0.00 0.00 0.00 71 1009.2
20260507093419 32 0.0 0.0 0.00 0.00 0.00 71 1008.9
20260507091420 32 0.0 0.0 0.00 0.00 0.00 70 1008.6
20260507085419 32 0.0 0.0 0.00 0.00 0.00 69 1008.6
20260507083420 32 0.0 0.0 0.00 0.00 0.00 69 1008.5
20260507081419 32 0.0 0.0 0.00 0.00 0.00 69 1008.3
20260507075420 32 0.0 0.0 0.00 0.00 0.00 68 1008.3
20260507073420 32 0.0 0.0 0.00 0.00 0.00 68 1008.3